This demonstration page uses our WeatherBlox Daily Observations layout. Learn more.

Left ArrowRight Arrow

38.20091, -84.87328

Hourly Observations for October 14, 2021

Temp ( °F °C ) Dew Point ( °F °C ) Humidity (%) Winds ( mph kmh ) Pressure ( in mb ) Visibility ( mi km ) Precip ( " mm )
12:53 am 00:53 Clear 70 21.1 68 20 93 93 SSE 5 7 29.97 1015 9 14 0.00 0.00
1:53 am 01:53 Clear 71 21.7 69 20.6 94 94 SSE 7 11 29.96 1014 9 14 0.00 0.00
2:53 am 02:53 Clear 70 21.1 68 20 93 93 SSE 3 6 29.96 1015 8 13 0.00 0.00
3:35 am 03:35 Clear with Mist and Fog 68 20 67 19.4 96 96 SSW 3 6 29.97 1015 2 3 0.00 0.00
3:45 am 03:45 Clear with Mist and Fog 67 19.4 67 19.4 100 100 Calm 29.97 1015 1 1 0.00 0.00
3:53 am 03:53 Clear with Fog 67 19.4 66 18.9 97 97 Calm 29.97 1015 1 1 0.00 0.00
3:58 am 03:58 Clear with Mist and Fog 67 19.4 66 18.9 97 97 Calm 29.97 1015 1 2 0.00 0.00
4:02 am 04:02 Clear with Mist and Fog 67 19.4 67 19.4 100 100 Calm 29.97 1015 1 1 0.00 0.00
4:34 am 04:34 Clear with Mist and Fog 67 19.4 67 19.4 100 100 ESE 3 6 29.96 1015 1 2 0.00 0.00
4:43 am 04:43 Clear with Mist and Fog 67 19.4 66 18.9 97 97 SE 3 6 29.97 1015 2 3 0.00 0.00
4:51 am 04:51 Clear with Mist and Fog 66 19 66 19 100 100 Calm 29.97 1015 1 2 0.00 0.00
4:53 am 04:53 Mostly Cloudy with Mist and Fog 66 18.9 66 18.9 100 100 Calm 29.97 1015 1 1 0.00 0.00
5:08 am 05:08 Clear with Fog 66 18.9 66 18.9 100 100 Calm 29.97 1015 1 1 0.00 0.00
5:15 am 05:15 Mostly Cloudy with Fog 66 18.9 66 18.9 100 100 Calm 29.97 1015 0 0 0.00 0.00
5:22 am 05:22 Mostly Cloudy with Fog 65 18.3 64 17.8 97 97 Calm 29.98 1015 0 0 0.00 0.00
5:41 am 05:41 Mostly Cloudy with Fog 65 18.3 65 18.3 100 100 Calm 29.99 1015 1 1 0.00 0.00
5:53 am 05:53 Mostly Cloudy with Fog 64 17.8 64 17.8 100 100 Calm 29.98 1015 1 1 0.00 0.00
6:00 am 06:00 Mostly Cloudy with Fog 64 17.8 64 17.8 100 100 Calm 29.99 1015 0 0 0.00 0.00
6:14 am 06:14 Mostly Cloudy with Fog 64 17.8 64 17.8 100 100 Calm 30.00 1016 0 0 0.00 0.00
6:53 am 06:53 Mostly Cloudy with Fog 63 17.2 63 17.2 100 100 Calm 30.00 1016 0 0 0.00 0.00
7:51 am 07:51 Mostly Cloudy with Mist and Fog 64 18 64 18 100 100 SE 3 6 30.02 1016 1 2 0.00 0.00
7:52 am 07:52 Partly Cloudy with Mist and Fog 65 18.3 64 17.8 97 97 SE 3 6 30.01 1016 1 2 0.00 0.00
7:55 am 07:55 Mostly Cloudy with Mist and Fog 64 17.8 64 17.8 100 100 Calm 30.02 1016 1 1 0.00 0.00
8:03 am 08:03 Sunny with Mist and Fog 65 18.3 64 17.8 97 97 Calm 30.03 1017 1 2 0.00 0.00
8:15 am 08:15 Sunny with Mist and Fog 65 18.3 65 18.3 100 100 SSE 5 7 30.02 1016 1 1 0.00 0.00
8:18 am 08:18 Sunny with Mist and Fog 65 18.3 65 18.3 100 100 SSE 5 7 30.02 1016 1 2 0.00 0.00
8:22 am 08:22 Sunny with Mist and Fog 67 19.4 66 18.9 97 97 SSE 5 7 30.01 1016 3 5 0.00 0.00
8:53 am 08:53 Sunny 68 20 67 19.4 96 96 S 3 6 30.02 1017 7 11 0.00 0.00
9:53 am 09:53 Sunny 73 22.8 69 20.6 87 87 S 8 13 30.03 1017 10 16 0.00 0.00
10:53 am 10:53 Sunny 74 23.3 68 20 82 82 SSW 7 11 30.02 1017 10 16 0.00 0.00
11:53 am 11:53 Sunny 77 25 67 19.4 71 71 SSW 7 11 30.01 1016 10 16 0.00 0.00
12:53 pm 12:53 Sunny 79 26.1 68 20 69 69 WSW 6 9 30.00 1016 10 16 0.00 0.00
1:53 pm 13:53 Mostly Sunny 81 27.2 67 19.4 62 62 SW 10 17 29.97 1015 10 16 0.00 0.00
2:53 pm 14:53 Mostly Sunny 83 28.3 66 18.9 57 57 SSW 7 11 29.94 1014 10 16 0.00 0.00
3:53 pm 15:53 Mostly Cloudy 83 28.3 66 18.9 57 57 S 9 15 29.92 1013 10 16 0.00 0.00
4:53 pm 16:53 Mostly Sunny 83 28.3 64 17.8 53 53 SSW 9 15 29.91 1013 10 16 0.00 0.00
5:53 pm 17:53 Sunny 80 26.7 66 18.9 62 62 S 5 7 29.91 1013 10 16 0.00 0.00
6:53 pm 18:53 Sunny 79 26.1 65 18.3 62 62 S 3 6 29.91 1013 10 16 0.00 0.00
7:53 pm 19:53 Clear 74 23.3 66 18.9 76 76 Calm 29.91 1013 10 16 0.00 0.00
8:53 pm 20:53 Clear 74 23.3 66 18.9 76 76 SSE 3 6 29.92 1013 10 16 0.00 0.00
9:53 pm 21:53 Clear 73 22.8 67 19.4 81 81 SSE 6 9 29.92 1013 10 16 0.00 0.00
10:53 pm 22:53 Clear 73 22.8 67 19.4 81 81 S 6 9 29.92 1013 10 16 0.00 0.00
11:53 pm 23:53 Mostly Clear 73 22.8 67 19.4 81 81 S 5 7 29.92 1013 10 16 0.00 0.00

Powered by AerisWeather